Overview Statistics Trail Chart Weather Telemetry Raw packets
 

This is the latest recevied weather packets stored in our database for station/object OE3APM-13. If no packets are shown the sender has not sent any weather packets the latest 10 day(s).

<< 11 12 13 14 15 16 17 >>
Time Temp. Humidity Pressure Rain* Wind** Luminosity Snow
1788535831 28.89° C 39% 1014.4 hPa 0 mm - 251 W/m² -
1788535531 28.89° C 39% 1014.5 hPa 0 mm - 265 W/m² -
1788535231 29.44° C 39% 1014.8 hPa 0 mm - 279 W/m² -
1788534932 29.44° C 39% 1014.8 hPa 0 mm - 294 W/m² -
1788534631 29.44° C 39% 1014.9 hPa 0 mm - 309 W/m² -
1788534331 29.44° C 41% 1015 hPa 0 mm - 320 W/m² -
1788534030 29.44° C 41% 1015 hPa 0 mm - 330 W/m² -
1788533752 29.44° C 40% 1015.1 hPa 0 mm - 350 W/m² -
1788533431 29.44° C 41% 1015.2 hPa 0 mm - 355 W/m² -
1788533131 29.44° C 41% 1015.3 hPa 0 mm - 367 W/m² -
1788532830 29.44° C 41% 1015.3 hPa 0 mm - 383 W/m² -
1788532524 29.44° C 41% 1015.5 hPa 0 mm - 396 W/m² -
1788532219 29.44° C 41% 1015.4 hPa 0 mm - 410 W/m² -
1788531917 29.44° C 41% 1015.6 hPa 0 mm - 420 W/m² -
1788531617 28.89° C 41% 1015.7 hPa 0 mm - 434 W/m² -
1788531318 28.89° C 41% 1015.8 hPa 0 mm - 446 W/m² -
1788531016 28.89° C 41% 1015.8 hPa 0 mm - 455 W/m² -
1788530717 28.89° C 42% 1015.9 hPa 0 mm - 468 W/m² -
1788530415 28.89° C 43% 1015.8 hPa 0 mm - 483 W/m² -
1788530114 28.33° C 43% 1015.9 hPa 0 mm - 496 W/m² -
1788529811 28.89° C 42% 1016 hPa 0 mm - 503 W/m² -
1788529511 28.89° C 42% 1016 hPa 0 mm - 519 W/m² -
1788529213 28.89° C 43% 1016.1 hPa 0 mm - 527 W/m² -
1788528910 28.89° C 43% 1016.1 hPa 0 mm - 540 W/m² -
1788528610 28.89° C 42% 1016.1 hPa 0 mm - 552 W/m² -

* Rain latest hour (hover to see other rain measurements)
** Current wind speed in m/s (hover to see current wind gust speed)